FW6321 Weather Reports


time (UTC)temp
C
wind
direction
speed
KPH
gust
KPH
rain 1hr
cm
rain 24hr
cm
rain mn
cm
humidity
%
barometer
mb
20260506061008 10 325 12.9 29.0 0.00 0.03 0.03 95 1009.0
20260506060507 10 306 11.3 24.1 0.00 0.03 0.03 95 1009.0
20260506051005 9 330 9.7 16.1 0.00 0.03 0.03 96 1009.1
20260506050506 9 297 9.7 22.5 0.00 0.03 0.03 96 1009.2
20260506050109 9 335 11.3 22.5 0.00 0.03 0.03 96 1009.2
20260506044514 9 35 12.9 20.9 0.03 0.03 0.03 96 1009.2
20260506044005 9 321 9.7 20.9 0.03 0.03 0.03 96 1009.2
20260506043534 9 318 8.0 16.1 0.03 0.03 0.03 96 1009.2
20260506042534 9 307 8.0 19.3 0.03 0.03 0.03 96 1009.2
20260506041504 9 330 8.0 14.5 0.03 0.03 0.03 96 1009.2
20260506041004 9 330 8.0 17.7 0.03 0.03 0.03 95 1009.2
20260506040503 8 321 9.7 17.7 0.03 0.03 0.03 95 1009.3
20260506040012 8 344 9.7 19.3 0.03 0.03 0.03 95 1009.3
20260506035505 8 339 8.0 19.3 0.03 0.03 0.03 95 1009.3
20260506035005 8 16 9.7 17.7 0.00 0.00 0.00 95 1009.4
20260506034507 8 325 11.3 17.7 0.00 0.00 0.00 94 1009.4
20260506034006 9 349 12.9 20.9 0.00 0.00 0.00 94 1009.4
20260506033502 9 12 11.3 20.9 0.00 0.00 0.00 94 1009.4
20260506033005 9 39 9.7 20.9 0.00 0.00 0.00 94 1009.4
20260506032505 9 319 11.3 20.9 0.00 0.00 0.00 94 1009.5
20260506032005 9 353 11.3 20.9 0.00 0.00 0.00 94 1009.5
20260506031504 9 356 9.7 17.7 0.00 0.00 0.00 93 1009.4
20260506031004 9 10 11.3 17.7 0.00 0.00 0.00 93 1009.5
20260506030503 9 339 9.7 17.7 0.00 0.00 0.00 92 1009.5
20260506030004 9 330 9.7 22.5 0.00 0.00 0.00 92 1009.5
20260506025503 9 318 11.3 22.5 0.00 0.00 0.00 91 1009.6
20260506025004 9 347 12.9 24.1 0.00 0.00 0.00 91 1009.7
20260506024503 10 353 11.3 24.1 0.00 0.00 0.00 90 1009.6
20260506024004 9 6 8.0 20.9 0.00 0.00 0.00 90 1009.6
20260506023531 9 316 9.7 16.1 0.00 0.00 0.00 90 1009.5
20260506022504 9 318 9.7 17.7 0.00 0.00 0.00 90 1009.6
20260506022006 9 314 11.3 17.7 0.00 0.00 0.00 90 1009.6
20260506021505 9 325 9.7 17.7 0.00 0.00 0.00 90 1009.6
20260506021005 9 330 9.7 17.7 0.00 0.00 0.00 89 1009.5
20260506020502 9 330 9.7 19.3 0.00 0.00 0.00 89 1009.6
20260506020119 9 353 9.7 19.3 0.00 0.00 0.00 89 1009.6
20260506014505 9 330 8.0 14.5 0.00 0.00 0.00 89 1009.5
20260506014025 9 308 8.0 14.5 0.00 0.00 0.00 89 1009.6
20260506013005 9 349 8.0 16.1 0.00 0.00 0.00 89 1009.7
20260506012504 9 317 9.7 16.1 0.00 0.00 0.00 88 1009.7
20260506012003 9 325 9.7 16.1 0.00 0.00 0.00 88 1009.7
20260506011504 9 339 9.7 17.7 0.00 0.00 0.00 88 1009.7
20260506011004 10 306 9.7 17.7 0.00 0.00 0.00 88 1009.8
20260506010502 10 353 9.7 19.3 0.00 0.00 0.00 89 1009.9
20260506010106 10 339 9.7 19.3 0.00 0.00 0.00 89 1009.9
20260506004512 10 4 9.7 19.3 0.00 0.00 0.00 88 1010.0
20260506004045 10 330 8.0 19.3 0.00 0.00 0.00 88 1010.1
20260506003002 10 325 11.3 25.7 0.00 0.00 0.00 87 1010.2
20260506002504 10 339 12.9 25.7 0.00 0.00 0.00 87 1010.2
20260506002002 10 345 11.3 22.5 0.00 0.00 0.00 86 1010.2
20260506001502 10 339 11.3 24.1 0.00 0.00 0.00 86 1010.3
20260506001005 9 10 11.3 24.1 0.00 0.00 0.00 86 1010.3
20260506000504 9 1 9.7 24.1 0.00 0.00 0.00 86 1010.3
20260506000042 9 343 9.7 24.1 0.00 0.00 0.00 85 1010.3
20260505235035 9 319 9.7 17.7 0.00 0.00 0.00 85 1010.4
20260505233959 9 330 9.7 17.7 0.00 0.00 0.00 85 1010.5
20260505233458 9 343 8.0 17.7 0.00 0.00 0.00 85 1010.5
20260505232959 9 357 9.7 17.7 0.00 0.00 0.00 85 1010.5
20260505232501 9 342 8.0 17.7 0.00 0.00 0.00 84 1010.6
20260505232000 9 330 8.0 14.5 0.00 0.00 0.00 84 1010.6
20260505231459 9 306 8.0 16.1 0.00 0.00 0.00 84 1010.7
20260505231000 9 320 8.0 17.7 0.00 0.00 0.00 84 1010.7
20260505230513 9 4 9.7 17.7 0.00 0.00 0.00 84 1010.7
20260505230036 9 355 9.7 16.1 0.00 0.00 0.00 84 1010.8
20260505224957 9 320 6.4 16.1 0.00 0.00 0.00 85 1010.9
20260505224456 9 3 6.4 17.7 0.00 0.00 0.00 85 1010.8
20260505224043 9 12 8.0 17.7 0.00 0.00 0.00 85 1010.8
20260505222959 9 335 8.0 16.1 0.00 0.00 0.00 85 1010.9
20260505222459 9 19 8.0 19.3 0.00 0.00 0.00 85 1010.9
20260505222128 9 354 6.4 19.3 0.00 0.00 0.00 85 1011.0
20260505220454 9 358 9.7 19.3 0.00 0.00 0.00 85 1011.0
20260505215955 9 342 8.0 16.1 0.00 0.00 0.00 85 1011.1
20260505215453 9 318 9.7 19.3 0.00 0.00 0.00 85 1011.0
20260505214953 9 321 9.7 19.3 0.00 0.00 0.00 85 1011.1
20260505214454 9 339 9.7 17.7 0.00 0.00 0.00 85 1011.1
20260505214004 9 330 8.0 19.3 0.00 0.00 0.00 85 1011.1
20260505213449 10 339 6.4 19.3 0.00 0.00 0.00 85 1011.1
20260505213020 10 325 8.0 16.1 0.00 0.00 0.00 84 1011.1
20260505211948 10 345 11.3 22.5 0.00 0.00 0.00 83 1011.1
20260505211449 10 335 11.3 22.5 0.00 0.00 0.00 83 1011.1
20260505210959 10 325 9.7 19.3 0.00 0.00 0.00 82 1011.1
20260505210450 10 339 9.7 20.9 0.00 0.00 0.00 83 1011.2
20260505205950 10 325 9.7 20.9 0.00 0.00 0.00 83 1011.2
20260505205450 10 330 9.7 20.9 0.00 0.00 0.00 83 1011.3
20260505204951 10 4 11.3 22.5 0.00 0.00 0.00 82 1011.2
20260505204451 10 347 11.3 22.5 0.00 0.00 0.00 82 1011.3
20260505203956 10 6 12.9 24.1 0.00 0.00 0.00 82 1011.3
20260505203451 10 313 14.5 24.1 0.00 0.00 0.00 82 1011.4
20260505203028 10 325 14.5 24.1 0.00 0.00 0.00 81 1011.3
20260505201946 10 29 14.5 29.0 0.00 0.00 0.00 81 1011.4
20260505201447 10 313 12.9 29.0 0.00 0.00 0.00 81 1011.3
20260505201031 10 352 12.9 25.7 0.00 0.00 0.00 81 1011.3
20260505195946 10 13 14.5 25.7 0.00 0.00 0.00 81 1011.2
20260505195445 11 330 11.3 25.7 0.00 0.00 0.00 81 1011.2
20260505195018 11 335 11.3 24.1 0.00 0.00 0.00 81 1011.1
20260505194041 11 6 14.5 27.4 0.00 0.00 0.00 81 1011.1
20260505192943 11 7 16.1 32.2 0.00 0.00 0.00 81 1011.0
20260505192443 11 335 16.1 25.7 0.00 0.00 0.00 80 1010.8
20260505191942 11 330 16.1 29.0 0.00 0.00 0.00 80 1010.8
20260505191444 11 6 14.5 29.0 0.00 0.00 0.00 80 1010.8
20260505190940 11 12 12.9 24.1 0.00 0.00 0.00 81 1010.7
20260505190514 11 6 11.3 25.7 0.00 0.00 0.00 81 1010.7
20260505185439 11 349 12.9 24.1 0.00 0.00 0.00 80 1010.7
20260505185009 11 357 14.5 27.4 0.00 0.00 0.00 80 1010.6
20260505183942 11 347 14.5 27.4 0.00 0.00 0.00 79 1010.5
20260505183440 12 0 14.5 27.4 0.00 0.00 0.00 79 1010.5
20260505182937 12 357 14.5 27.4 0.00 0.00 0.00 79 1010.6
20260505182437 12 349 12.9 27.4 0.00 0.00 0.00 79 1010.5
20260505181938 12 6 14.5 29.0 0.00 0.00 0.00 78 1010.4
20260505181436 12 10 14.5 30.6 0.00 0.00 0.00 78 1010.4
20260505180936 12 350 14.5 30.6 0.00 0.00 0.00 77 1010.3
20260505180450 12 15 16.1 37.0 0.00 0.00 0.00 77 1010.3
20260505175937 12 21 17.7 37.0 0.00 0.00 0.00 76 1010.3
20260505175537 12 335 14.5 30.6 0.00 0.00 0.00 77 1010.3
20260505173938 12 358 16.1 32.2 0.00 0.00 0.00 76 1010.3
20260505173544 12 330 16.1 32.2 0.00 0.00 0.00 77 1010.3
20260505171934 13 325 16.1 32.2 0.00 0.00 0.00 77 1010.4
20260505171435 13 316 16.1 32.2 0.00 0.00 0.00 77 1010.4
20260505170933 13 301 17.7 30.6 0.00 0.00 0.00 77 1010.4
20260505170448 13 341 17.7 32.2 0.00 0.00 0.00 77 1010.4
20260505165937 13 339 17.7 32.2 0.00 0.00 0.00 76 1010.6
20260505165439 13 9 14.5 25.7 0.00 0.00 0.00 77 1010.5
20260505164935 13 354 14.5 29.0 0.00 0.00 0.00 77 1010.6
20260505164436 13 11 16.1 30.6 0.00 0.00 0.00 77 1010.6
20260505163937 13 354 16.1 33.8 0.00 0.00 0.00 78 1010.5
20260505163436 13 309 16.1 33.8 0.00 0.00 0.00 77 1010.6
20260505162934 13 3 14.5 29.0 0.00 0.00 0.00 77 1010.5
20260505162507 13 335 14.5 29.0 0.00 0.00 0.00 77 1010.6
20260505161436 13 4 12.9 22.5 0.00 0.00 0.00 77 1010.6
20260505161100 13 11 11.3 22.5 0.00 0.00 0.00 79 1010.6
20260505153012 13 302 14.5 29.0 0.00 0.03 0.00 79 1010.7
20260505151928 13 8 12.9 22.5 0.00 0.03 0.00 79 1010.8
20260505151458 13 2 12.9 25.7 0.00 0.05 0.00 79 1010.8
20260505150426 13 357 14.5 27.4 0.00 0.08 0.00 78 1010.8
20260505140422 14 300 11.3 24.1 0.00 0.13 0.00 79 1011.0
20260505124908 12 32 11.3 20.9 0.00 0.46 0.00 83 1011.8
20260505124409 13 0 9.7 16.1 0.00 0.46 0.00 83 1011.9
20260505123943 13 64 11.3 22.5 0.00 0.46 0.00 85 1011.8
20260505122908 13 22 11.3 17.7 0.00 0.46 0.00 84 1011.7
20260505122404 12 76 11.3 17.7 0.00 0.46 0.00 85 1011.8
20260505121906 12 14 11.3 19.3 0.00 0.46 0.00 86 1011.8
20260505121408 12 8 9.7 19.3 0.00 0.46 0.00 87 1011.9
20260505120909 12 19 9.7 17.7 0.00 0.46 0.00 87 1011.9
20260505120404 12 55 11.3 19.3 0.00 0.46 0.00 87 1011.8
20260505115904 12 58 12.9 22.5 0.00 0.46 0.00 88 1011.8
20260505115438 12 15 12.9 22.5 0.00 0.46 0.00 87 1011.8
20260505114403 12 23 11.3 22.5 0.00 0.46 0.00 88 1011.9
20260505113903 11 24 12.9 22.5 0.00 0.46 0.00 87 1012.1
20260505113502 11 317 9.7 22.5 0.00 0.46 0.00 88 1012.0
20260505113133 11 320 9.7 25.7 0.00 0.46 0.00 88 1012.1
20260505110410 11 319 11.3 22.5 0.00 0.46 0.00 89 1012.0
20260505101903 11 355 12.9 24.1 0.00 0.46 0.00 90 1012.4
20260505101407 11 10 11.3 22.5 0.00 0.46 0.00 90 1012.5
20260505100928 11 8 11.3 24.1 0.00 0.46 0.00 90 1012.5
20260505095905 11 7 11.3 20.9 0.00 0.46 0.00 90 1012.5
20260505095359 11 17 14.5 24.1 0.00 0.46 0.00 90 1012.6
20260505094901 11 30 14.5 24.1 0.00 0.46 0.00 90 1012.6
20260505094402 11 20 12.9 24.1 0.00 0.46 0.00 90 1012.6
20260505093901 11 340 12.9 27.4 0.00 0.46 0.00 90 1012.6
20260505093402 11 23 14.5 27.4 0.00 0.46 0.00 90 1012.6
20260505092948 11 16 11.3 24.1 0.00 0.46 0.00 90 1012.7
20260505091903 11 18 12.9 25.7 0.00 0.46 0.00 91 1012.8
20260505091430 10 5 14.5 25.7 0.00 0.46 0.00 91 1012.8
20260505090400 10 19 11.3 25.7 0.00 0.46 0.00 91 1012.9
20260505085858 10 13 11.3 20.9 0.00 0.46 0.00 92 1012.9
20260505085400 10 16 12.9 22.5 0.00 0.46 0.00 92 1012.9
20260505084858 10 49 12.9 24.1 0.00 0.46 0.00 92 1012.9
20260505084400 10 8 11.3 24.1 0.00 0.46 0.00 92 1012.8
20260505083858 10 6 9.7 20.9 0.00 0.46 0.00 93 1012.8
20260505083358 10 53 11.3 20.9 0.00 0.46 0.00 93 1012.7
20260505082900 10 4 12.9 24.1 0.00 0.46 0.00 94 1012.7
20260505082357 10 330 11.3 24.1 0.00 0.46 0.00 94 1012.7
20260505081933 10 10 12.9 22.5 0.00 0.46 0.00 94 1012.6
20260505080901 10 351 12.9 24.1 0.00 0.46 0.00 94 1012.6
20260505080356 10 20 11.3 20.9 0.00 0.46 0.00 94 1012.6
20260505075858 10 40 11.3 20.9 0.00 0.46 0.00 95 1012.6
20260505075355 10 345 12.9 22.5 0.00 0.46 0.00 95 1012.7
20260505074852 10 8 12.9 22.5 0.00 0.46 0.00 95 1012.6
20260505074429 10 345 14.5 24.1 0.00 0.46 0.00 95 1012.6
20260505073352 10 6 12.9 25.7 0.00 0.46 0.00 95 1012.7
20260505072854 10 6 12.9 25.7 0.00 0.46 0.00 95 1012.7
20260505072422 10 335 16.1 25.7 0.00 0.46 0.00 95 1012.7
20260505071354 10 9 12.9 25.7 0.00 0.46 0.00 95 1012.7
20260505070959 10 16 12.9 27.4 0.00 0.46 0.00 95 1012.6
20260505065350 10 4 12.9 25.7 0.00 0.46 0.00 96 1012.8
20260505064850 10 352 12.9 27.4 0.00 0.46 0.00 96 1012.8
20260505064350 10 9 12.9 27.4 0.00 0.46 0.00 96 1012.9
20260505063849 10 335 11.3 24.1 0.00 0.46 0.00 96 1012.9
20260505063352 10 2 9.7 24.1 0.00 0.46 0.00 96 1012.8
20260505062853 10 12 12.9 22.5 0.00 0.46 0.00 96 1012.9
20260505062348 10 341 14.5 24.1 0.00 0.46 0.00 96 1012.9
20260505061850 10 356 14.5 24.1 0.00 0.46 0.00 95 1012.9
20260505061349 10 5 12.9 20.9 0.00 0.46 0.00 95 1012.9